ASA66 PANC-PACV

Flight info

Callsign ASA66
Flight time 0h 40m
Altitude 19000
Route NOEND JOH
Aircraft B737/M-SDE2E3FGHIRWXY/LB1

Departure

Time 2026-04-20 16:22
Airport Ted Stevens Anchorage International Airport (PANC)

Arrival

Time 2026-04-20 17:03
Airport Merle K (Mudhole) Smith Airport (PACV)
Time Latitude Longitude Altitude Speed Heading
2026-04-20 15:38 61.17505 -149.98446 109 ft 0 kts 82°
2026-04-20 16:11 61.17505 -149.98453 109 ft 3 kts 82°
2026-04-20 16:11 61.17501 -149.98507 108 ft 4 kts 80°
2026-04-20 16:11 61.17497 -149.98559 105 ft 4 kts 91°
2026-04-20 16:12 61.17503 -149.98606 105 ft 4 kts 140°
2026-04-20 16:12 61.17521 -149.98627 104 ft 1 kts 160°
2026-04-20 16:12 61.17525 -149.98629 105 ft 1 kts 160°
2026-04-20 16:13 61.17525 -149.98630 106 ft 0 kts 160°
2026-04-20 16:15 61.17522 -149.98627 106 ft 1 kts 160°
2026-04-20 16:15 61.17501 -149.98613 105 ft 5 kts 162°
2026-04-20 16:15 61.17459 -149.98584 106 ft 8 kts 161°
2026-04-20 16:15 61.17398 -149.98593 108 ft 11 kts 203°
2026-04-20 16:16 61.17330 -149.98683 109 ft 12 kts 212°
2026-04-20 16:16 61.17256 -149.98772 110 ft 12 kts 198°
2026-04-20 16:16 61.17180 -149.98737 110 ft 11 kts 158°
2026-04-20 16:16 61.17124 -149.98631 113 ft 11 kts 110°
2026-04-20 16:17 61.17117 -149.98475 114 ft 11 kts 90°
2026-04-20 16:17 61.17118 -149.98322 114 ft 10 kts 89°
2026-04-20 16:17 61.17118 -149.98173 114 ft 10 kts 89°
2026-04-20 16:17 61.17119 -149.98027 113 ft 10 kts 89°
2026-04-20 16:18 61.17119 -149.97870 111 ft 11 kts 90°
2026-04-20 16:18 61.17118 -149.97684 108 ft 14 kts 90°
2026-04-20 16:18 61.17118 -149.97480 105 ft 14 kts 90°
2026-04-20 16:18 61.17122 -149.97275 101 ft 14 kts 85°
2026-04-20 16:19 61.17128 -149.97069 98 ft 14 kts 89°
2026-04-20 16:19 61.17127 -149.96872 96 ft 11 kts 101°
2026-04-20 16:19 61.17086 -149.96805 95 ft 3 kts 176°
2026-04-20 16:19 61.17079 -149.96805 95 ft 0 kts 179°
2026-04-20 16:20 61.17075 -149.96805 97 ft 4 kts 179°
2026-04-20 16:20 61.17020 -149.96804 99 ft 12 kts 179°
2026-04-20 16:20 61.16937 -149.96814 98 ft 12 kts 194°
2026-04-20 16:20 61.16906 -149.96885 97 ft 3 kts 248°
2026-04-20 16:21 61.16899 -149.96922 97 ft 3 kts 248°
2026-04-20 16:21 61.16881 -149.97013 99 ft 10 kts 248°
2026-04-20 16:21 61.16844 -149.97196 103 ft 17 kts 248°
2026-04-20 16:21 61.16796 -149.97457 110 ft 22 kts 257°
2026-04-20 16:22 61.16786 -149.97972 115 ft 68 kts 269°
2026-04-20 16:22 61.16783 -149.99517 128 ft 143 kts 270°
2026-04-20 16:22 61.16849 -150.01826 587 ft 167 kts 267°
2026-04-20 16:22 61.17005 -150.04126 1789 ft 154 kts 268°
2026-04-20 16:23 61.17196 -150.06282 2797 ft 154 kts 270°
2026-04-20 16:23 61.17411 -150.08470 3576 ft 165 kts 272°
2026-04-20 16:23 61.17576 -150.11012 3940 ft 189 kts 269°
2026-04-20 16:23 61.17696 -150.13971 3987 ft 223 kts 268°
2026-04-20 16:24 61.17805 -150.17321 3994 ft 237 kts 268°
2026-04-20 16:24 61.17911 -150.20718 4008 ft 241 kts 268°
2026-04-20 16:24 61.18290 -150.24150 4521 ft 256 kts 296°
2026-04-20 16:24 61.19635 -150.26628 5698 ft 270 kts 331°
2026-04-20 16:25 61.21508 -150.27377 6766 ft 281 kts 354°
2026-04-20 16:25 61.23476 -150.27428 7775 ft 285 kts 355°
2026-04-20 16:25 61.25477 -150.27440 8758 ft 289 kts 356°
2026-04-20 16:25 61.27505 -150.27342 9696 ft 297 kts
2026-04-20 16:26 61.29414 -150.25736 10536 ft 309 kts 32°
2026-04-20 16:26 61.31007 -150.22491 10836 ft 338 kts 57°
2026-04-20 16:26 61.31848 -150.17831 11352 ft 352 kts 83°
2026-04-20 16:26 61.31843 -150.12716 12128 ft 357 kts 99°
2026-04-20 16:27 61.31398 -150.07591 12925 ft 363 kts 104°
2026-04-20 16:27 61.30813 -150.02422 13687 ft 371 kts 106°
2026-04-20 16:27 61.30187 -149.97170 14471 ft 376 kts 106°
2026-04-20 16:27 61.29563 -149.91868 15345 ft 379 kts 105°
2026-04-20 16:28 61.28950 -149.86507 16207 ft 383 kts 105°
2026-04-20 16:28 61.28353 -149.81152 17033 ft 388 kts 105°
2026-04-20 16:28 61.27750 -149.75642 17857 ft 393 kts 105°
2026-04-20 16:28 61.27146 -149.70066 18640 ft 397 kts 105°
2026-04-20 16:29 61.26537 -149.64435 18821 ft 400 kts 104°
2026-04-20 16:29 61.25930 -149.58804 18837 ft 398 kts 105°
2026-04-20 16:29 61.25323 -149.53193 18840 ft 399 kts 104°
2026-04-20 16:29 61.24713 -149.47576 18834 ft 399 kts 105°
2026-04-20 16:30 61.24108 -149.42035 18856 ft 399 kts 105°
2026-04-20 16:30 61.23450 -149.36454 18839 ft 398 kts 107°
2026-04-20 16:30 61.22769 -149.30899 18809 ft 397 kts 106°
2026-04-20 16:30 61.22104 -149.25342 18871 ft 397 kts 106°
2026-04-20 16:31 61.21455 -149.19739 18832 ft 401 kts 105°
2026-04-20 16:31 61.20819 -149.14086 18841 ft 403 kts 105°
2026-04-20 16:31 61.20195 -149.08404 18846 ft 405 kts 105°
2026-04-20 16:31 61.19568 -149.02705 18841 ft 406 kts 105°
2026-04-20 16:32 61.18944 -148.97008 18840 ft 405 kts 105°
2026-04-20 16:32 61.18325 -148.91392 18843 ft 404 kts 105°
2026-04-20 16:32 61.17697 -148.85731 18836 ft 403 kts 105°
2026-04-20 16:32 61.17068 -148.80083 18843 ft 401 kts 105°
2026-04-20 16:33 61.16440 -148.74463 18850 ft 400 kts 105°
2026-04-20 16:33 61.15810 -148.68853 18871 ft 399 kts 105°
2026-04-20 16:33 61.15184 -148.63286 18828 ft 400 kts 105°
2026-04-20 16:33 61.14545 -148.57634 18839 ft 401 kts 105°
2026-04-20 16:34 61.13903 -148.52008 18842 ft 402 kts 107°
2026-04-20 16:34 61.13004 -148.46563 18879 ft 399 kts 117°
2026-04-20 16:34 61.11699 -148.41615 18877 ft 397 kts 128°
2026-04-20 16:34 61.10136 -148.36913 18877 ft 397 kts 129°
2026-04-20 16:35 61.08537 -148.32255 18862 ft 396 kts 129°
2026-04-20 16:35 61.06941 -148.27640 18875 ft 395 kts 129°
2026-04-20 16:35 61.05346 -148.23015 18886 ft 395 kts 129°
2026-04-20 16:35 61.03755 -148.18379 18889 ft 396 kts 129°
2026-04-20 16:36 61.02169 -148.13743 18888 ft 395 kts 129°
2026-04-20 16:36 61.00588 -148.09113 18883 ft 396 kts 129°
2026-04-20 16:36 60.99001 -148.04467 18870 ft 396 kts 129°
2026-04-20 16:36 60.97440 -147.99900 18878 ft 396 kts 129°
2026-04-20 16:37 60.95853 -147.95266 18891 ft 396 kts 129°
2026-04-20 16:37 60.94263 -147.90628 18910 ft 397 kts 129°
2026-04-20 16:37 60.92670 -147.85990 18875 ft 398 kts 129°
2026-04-20 16:37 60.91072 -147.81349 18884 ft 397 kts 129°
2026-04-20 16:38 60.89479 -147.76729 18884 ft 397 kts 129°
2026-04-20 16:38 60.87884 -147.72115 18893 ft 396 kts 129°
2026-04-20 16:38 60.86288 -147.67509 18888 ft 396 kts 130°
2026-04-20 16:38 60.84709 -147.62963 18897 ft 396 kts 130°
2026-04-20 16:39 60.83109 -147.58364 18889 ft 396 kts 130°
2026-04-20 16:39 60.81532 -147.53831 18767 ft 388 kts 130°
2026-04-20 16:39 60.79964 -147.49336 18383 ft 386 kts 130°
2026-04-20 16:39 60.78410 -147.44892 18147 ft 377 kts 130°
2026-04-20 16:40 60.76913 -147.40608 18127 ft 365 kts 130°
2026-04-20 16:40 60.75431 -147.36390 18162 ft 369 kts 130°
2026-04-20 16:40 60.73914 -147.32093 18171 ft 376 kts 130°
2026-04-20 16:40 60.72375 -147.27737 18174 ft 379 kts 130°
2026-04-20 16:41 60.70858 -147.23443 18169 ft 377 kts 130°
2026-04-20 16:41 60.69327 -147.19113 18171 ft 376 kts 130°
2026-04-20 16:41 60.67793 -147.14783 17986 ft 378 kts 130°
2026-04-20 16:41 60.66252 -147.10442 17696 ft 377 kts 130°
2026-04-20 16:42 60.64718 -147.06128 17414 ft 374 kts 130°
2026-04-20 16:42 60.63197 -147.01857 17128 ft 371 kts 130°
2026-04-20 16:42 60.61717 -146.97586 16820 ft 369 kts 126°
2026-04-20 16:42 60.60632 -146.92826 16542 ft 370 kts 113°
2026-04-20 16:43 60.59817 -146.88031 16261 ft 356 kts 111°
2026-04-20 16:43 60.59061 -146.83319 15989 ft 347 kts 110°
2026-04-20 16:43 60.58327 -146.78685 15700 ft 341 kts 110°
2026-04-20 16:43 60.57606 -146.74102 15313 ft 339 kts 110°
2026-04-20 16:44 60.56891 -146.69546 14917 ft 337 kts 110°
2026-04-20 16:44 60.56183 -146.65028 14543 ft 334 kts 110°
2026-04-20 16:44 60.55482 -146.60550 14177 ft 331 kts 110°
2026-04-20 16:44 60.54786 -146.56107 13817 ft 329 kts 110°
2026-04-20 16:45 60.54095 -146.51700 13417 ft 326 kts 110°
2026-04-20 16:45 60.53410 -146.47339 13044 ft 323 kts 110°
2026-04-20 16:45 60.52739 -146.43072 12995 ft 320 kts 110°
2026-04-20 16:45 60.52065 -146.38784 12877 ft 317 kts 110°
2026-04-20 16:46 60.51398 -146.34543 12531 ft 315 kts 110°
2026-04-20 16:46 60.50736 -146.30347 12499 ft 310 kts 110°
2026-04-20 16:46 60.50070 -146.26145 12502 ft 317 kts 110°
2026-04-20 16:46 60.49386 -146.21850 12492 ft 322 kts 110°
2026-04-20 16:47 60.48694 -146.17518 12498 ft 323 kts 110°
2026-04-20 16:47 60.48002 -146.13193 12489 ft 322 kts 110°
2026-04-20 16:47 60.47323 -146.08943 12482 ft 320 kts 110°
2026-04-20 16:47 60.46639 -146.04658 12492 ft 319 kts 110°
2026-04-20 16:48 60.45954 -146.00374 12491 ft 319 kts 111°
2026-04-20 16:48 60.45269 -145.96100 12482 ft 319 kts 110°
2026-04-20 16:48 60.44584 -145.91827 12486 ft 319 kts 110°
2026-04-20 16:48 60.43897 -145.87549 12490 ft 319 kts 110°
2026-04-20 16:49 60.43209 -145.83269 12487 ft 320 kts 111°
2026-04-20 16:49 60.42518 -145.78979 12491 ft 321 kts 111°
2026-04-20 16:49 60.41827 -145.74690 12488 ft 321 kts 111°
2026-04-20 16:49 60.41142 -145.70448 12490 ft 322 kts 111°
2026-04-20 16:50 60.40445 -145.66143 12481 ft 322 kts 110°
2026-04-20 16:50 60.39746 -145.61846 12491 ft 322 kts 111°
2026-04-20 16:50 60.38821 -145.57780 12467 ft 316 kts 133°
2026-04-20 16:50 60.37273 -145.54787 12493 ft 303 kts 145°
2026-04-20 16:51 60.35679 -145.52092 12318 ft 295 kts 146°
2026-04-20 16:51 60.34102 -145.49443 11966 ft 294 kts 146°
2026-04-20 16:51 60.32528 -145.46817 11622 ft 293 kts 146°
2026-04-20 16:51 60.31490 -145.45092 11414 ft 291 kts 146°
2026-04-20 16:52 60.29426 -145.41681 10999 ft 288 kts 146°
2026-04-20 16:52 60.27878 -145.39135 10684 ft 286 kts 146°
2026-04-20 16:52 60.26376 -145.36506 10361 ft 288 kts 134°
2026-04-20 16:52 60.25398 -145.32964 10055 ft 291 kts 116°
2026-04-20 16:53 60.24609 -145.29223 9758 ft 289 kts 116°
2026-04-20 16:53 60.23824 -145.25510 9421 ft 287 kts 116°
2026-04-20 16:53 60.23306 -145.23065 9212 ft 286 kts 116°
2026-04-20 16:53 60.22545 -145.19474 8985 ft 273 kts 116°
2026-04-20 16:54 60.21563 -145.14869 8414 ft 268 kts 116°
2026-04-20 16:54 60.20846 -145.11524 8315 ft 255 kts 116°
2026-04-20 16:54 60.20303 -145.08206 8169 ft 248 kts 98°
2026-04-20 16:54 60.20156 -145.04793 7853 ft 244 kts 96°
2026-04-20 16:55 60.20065 -145.02545 7563 ft 243 kts 96°
2026-04-20 16:55 60.20099 -144.99172 7086 ft 243 kts 73°
2026-04-20 16:55 60.21031 -144.96456 6624 ft 237 kts 32°
2026-04-20 16:55 60.22525 -144.95270 6208 ft 229 kts 12°
2026-04-20 16:56 60.24551 -144.94172 5754 ft 226 kts 12°
2026-04-20 16:56 60.26088 -144.93937 5430 ft 221 kts 342°
2026-04-20 16:56 60.27525 -144.94926 5200 ft 218 kts 338°
2026-04-20 16:56 60.28474 -144.95602 5062 ft 218 kts 335°
2026-04-20 16:57 60.29778 -144.97111 4878 ft 215 kts 323°
2026-04-20 16:57 60.31022 -144.98772 4706 ft 214 kts 324°
2026-04-20 16:57 60.32267 -145.00430 4515 ft 214 kts 324°
2026-04-20 16:57 60.33510 -145.02091 4334 ft 215 kts 324°
2026-04-20 16:58 60.34755 -145.03776 4145 ft 216 kts 324°
2026-04-20 16:58 60.36360 -145.06169 3875 ft 217 kts 317°
2026-04-20 16:58 60.37132 -145.07525 3744 ft 218 kts 316°
2026-04-20 16:58 60.38256 -145.09546 3553 ft 220 kts 316°
2026-04-20 16:59 60.39395 -145.11621 3358 ft 221 kts 315°
2026-04-20 16:59 60.40528 -145.13730 3160 ft 220 kts 311°
2026-04-20 16:59 60.41465 -145.16158 2961 ft 218 kts 305°
2026-04-20 16:59 60.42374 -145.18644 2839 ft 220 kts 304°
2026-04-20 17:00 60.43984 -145.23801 2521 ft 217 kts 292°
2026-04-20 17:00 60.44559 -145.26481 2163 ft 202 kts 291°
2026-04-20 17:00 60.45102 -145.28987 1863 ft 187 kts 294°
2026-04-20 17:01 60.45613 -145.31309 1604 ft 173 kts 294°
2026-04-20 17:01 60.46085 -145.33451 1391 ft 158 kts 293°
2026-04-20 17:01 60.46507 -145.35367 1180 ft 143 kts 293°
2026-04-20 17:01 60.46898 -145.37141 1033 ft 137 kts 292°
2026-04-20 17:02 60.47285 -145.38902 855 ft 138 kts 292°
2026-04-20 17:02 60.47672 -145.40705 699 ft 142 kts 293°
2026-04-20 17:02 60.48088 -145.42540 496 ft 145 kts 293°
2026-04-20 17:02 60.48494 -145.44382 295 ft 141 kts 295°
2026-04-20 17:03 60.48888 -145.46128 67 ft 136 kts 294°
2026-04-20 17:03 60.49231 -145.47678 50 ft 93 kts 294°
2026-04-20 17:03 60.49410 -145.48492 51 ft 44 kts 294°
2026-04-20 17:03 60.49528 -145.49020 54 ft 38 kts 294°
2026-04-20 17:04 60.49625 -145.49452 52 ft 26 kts 295°
2026-04-20 17:04 60.49653 -145.49650 54 ft 8 kts 230°
2026-04-20 17:04 60.49617 -145.49604 52 ft 8 kts 89°
2026-04-20 17:04 60.49619 -145.49484 55 ft 12 kts 97°
2026-04-20 17:05 60.49591 -145.49312 55 ft 14 kts 110°
2026-04-20 17:05 60.49558 -145.49133 50 ft 13 kts 111°
2026-04-20 17:05 60.49521 -145.48966 53 ft 13 kts 117°
2026-04-20 17:05 60.49483 -145.48805 52 ft 12 kts 115°
2026-04-20 17:06 60.49448 -145.48646 52 ft 12 kts 114°
2026-04-20 17:06 60.49406 -145.48454 51 ft 19 kts 114°
2026-04-20 17:06 60.49341 -145.48154 52 ft 25 kts 114°
2026-04-20 17:06 60.49268 -145.47842 51 ft 23 kts 115°
2026-04-20 17:07 60.49217 -145.47608 50 ft 10 kts 105°
2026-04-20 17:07 60.49245 -145.47541 51 ft 7 kts 23°
2026-04-20 17:07 60.49287 -145.47503 51 ft 7 kts 24°
2026-04-20 17:07 60.49332 -145.47463 49 ft 8 kts 24°
2026-04-20 17:08 60.49380 -145.47412 53 ft 7 kts 31°
2026-04-20 17:08 60.49403 -145.47421 49 ft 3 kts 312°
2026-04-20 17:08 60.49425 -145.47458 51 ft 5 kts 348°
2026-04-20 17:08 60.49453 -145.47418 52 ft 5 kts 64°
2026-04-20 17:09 60.49444 -145.47347 53 ft 6 kts 120°
2026-04-20 17:09 60.49424 -145.47282 48 ft 3 kts 124°
2026-04-20 17:09 60.49419 -145.47266 49 ft 0 kts 123°